Regional Weather Roundup
Issued by NWS

Home | Current Version | Previous Version | Text Only | Print | Product List | Glossary On
Versions: 1 2 3 4 5 6 7 8 9 10 11 12 13 14 15 16 17 18 19 20 21 22 23 24 25 26 27 28 29 30 31 32 33 34 35 36 37 38 39 40 41 42 43 44 45 46 47 48 49 50
000
ASUS43 KTOP 301708
RWRKS

WEATHER ROUNDUP FOR KANSAS
NATIONAL WEATHER SERVICE GOODLAND KS
1200 PM CDT SUN APR 30 2017

NOTE:  "FAIR" INDICATES FEW OR NO CLOUDS BELOW 12,000 FEET WITH NO
SIGNIFICANT WEATHER AND/OR OBSTRUCTIONS TO VISIBILITY.

KSZ001>006-013>018-027>032-041>047-301800-
NORTHWEST KANSAS

CITY           SKY/WX    TMP DP  RH WIND       PRES   REMARKS
GOODLAND       SNOW      32  30  92 N33G46    29.80S VSB 1/4 WCI  17
HAYS           CLOUDY    37  36  96 N25G31    29.55S FOG     WCI  25
HILL CITY      LGT SNOW  34  34 100 N25G32    29.65S VSB 3/4 WCI  21
RUSSELL        LGT RAIN  39  37  92 N24G35    29.52S FOG     WCI  28
$$

KSZ061>065-074>080-084>089-301800-
SOUTHWEST KANSAS

CITY           SKY/WX    TMP DP  RH WIND       PRES   REMARKS
DODGE CITY     LGT SNOW  33  32  96 N29G40    29.54R VSB 3/4 WCI  19
ELKHART          N/A    N/A N/A N/A MISG        N/A
GREAT BEND     LGT RAIN  40  39  97 N20G31    29.49S FOG     WCI  30
LIBERAL        SNOW      34  30  86 NW44G59   29.65R VSB 1/4 WCI  18
PRATT          LGT RAIN  40  39  97 N18       29.42F WCI  31
$$

KSZ066>073-081>083-090>101-301800-
SOUTHEAST KANSAS

CITY           SKY/WX    TMP DP  RH WIND       PRES   REMARKS
CHANUTE        CLOUDY    54  46  74 S18G29    29.50F
COFFEYVILLE    CLOUDY    54  44  69 S18G30    29.53F
HUTCHINSON     CLOUDY    48  44  86 SE10      29.43F
MEDICINE LODGE   N/A    N/A N/A N/A W8        29.41F
PARSONS        CLOUDY    52  44  74 S12G23    29.53F
WICHITA INTL   CLOUDY    47  41  80 S15       29.44S
WICHITA JABRA  CLOUDY    47  44  90 S13       29.45S
WICHITA MCCONL CLOUDY    47  40  77 S10       29.45S
WINFIELD       CLOUDY    46  39  76 S22G32    29.48R
$$

KSZ007>012-019>026-033>040-048>060-102>105-301800-
NORTHEAST KANSAS

CITY           SKY/WX    TMP DP  RH WIND       PRES   REMARKS
CONCORDIA      CLOUDY    41  40  96 N20G25    29.54S
EMPORIA        CLOUDY    50  48  93 S12       29.47F
LAWRENCE       LGT RAIN  53  53 100 S8        29.51R FOG
MANHATTAN      CLOUDY    48  32  53 E10       29.50R FOG
MARYSVILLE     RAIN      43  43 100 NE10      29.54F
OLATHE IND     RAIN      53  52  96 S15G23    29.51S FOG
OLATHE EXE     CLOUDY    52  52 100 SW12G22   29.50F FOG
SALINA         CLOUDY    46  43  89 NE13      29.49F FOG
TOPEKA BILLARD CLOUDY    51  51 100 S12       29.49S
TOPEKA FORBES  CLOUDY    52  50  93 S8        29.48F
$$




USA.gov is the U.S. government's official web portal to all federal, state and local government web resources and services.